Denison, IA

10:17 AM CST on January 18, 2018 (GMT -0600)
Denison Municipal

Weather History for KDNS - February, 2014

Change the Weather History Date:

Thursday, February 20, 2014

  Actual Average Record
Temperature  
Mean Temperature 31 °F -  
Max Temperature 39 °F 35 °F 59 °F (2017)
Min Temperature 23 °F 21 °F -11 °F (2008)
Degree Days  
Heating Degree Days 34    
Moisture  
Dew Point 29 °F    
Average Humidity 87    
Maximum Humidity 100    
Minimum Humidity 69    
Precipitation  
Precipitation 0.12 in - - ()
Sea Level Pressure  
Sea Level Pressure 29.55 in    
Wind  
Wind Speed 14 mph (NNW)    
Max Wind Speed 30 mph    
Max Gust Speed 46 mph    
Visibility 8 miles    
Events Rain , Snow    
Averages and records for this station are not official NWS values.
T = Trace of Precipitation, MM = Missing Value Source: NWS Daily Summary

Daily Weather History Graph

Daily Weather History Graph

Search for Another Location

Airport or City:

Trip Planner

Search our weather history database for the weather conditions in past years. The results will help you decide how hot, cold, wet, or windy it might be!

Date:

Astronomy

Feb. 20, 2014 Rise Set
Actual Time 7:10 AM CST 6:00 PM CST
Civil Twilight 6:41 AM CST 6:29 PM CST
Nautical Twilight 6:09 AM CST 7:01 PM CST
Astronomical Twilight 5:37 AM CST 7:34 PM CST
Moon No Moon Rise 9:47 AM CST (2/20)
Length of Visible Light 11h 47m
Length of Day
10h 50m
Waning Gibbous, 70% of the Moon is Illuminated
Feb 20
Waning Gibbous
Feb 22
Last Quarter
Mar 1
New
Mar 8
First Quarter
Mar 16
Full

Hourly Weather History & Observations

Time (CST) Temp. Windchill Dew Point Humidity Pressure Visibility Wind Dir Wind Speed Gust Speed Precip Events Conditions
12:15 AM 39.2 °F 29.6 °F 30.2 °F 70% 29.57 in 10.0 mi SSE 19.6 mph 26.5 mph N/A   Overcast
12:35 AM 39.2 °F 30.5 °F 32.0 °F 75% 29.57 in 10.0 mi SSE 16.1 mph 21.9 mph N/A   Overcast
12:55 AM 39.2 °F 31.6 °F 33.8 °F 81% 29.56 in 10.0 mi SSE 12.7 mph 18.4 mph N/A   Overcast
1:15 AM 39.2 °F 30.8 °F 33.8 °F 81% 29.56 in 10.0 mi SSE 15.0 mph - N/A   Overcast
1:35 AM 39.2 °F 33.6 °F 35.6 °F 87% 29.57 in 10.0 mi SSE 8.1 mph 15.0 mph N/A   Overcast
1:55 AM 39.2 °F 35.0 °F 35.6 °F 87% 29.58 in 10.0 mi NW 5.8 mph - N/A   Overcast
2:15 AM 39.2 °F 35.0 °F 33.8 °F 81% 29.57 in 10.0 mi SSE 5.8 mph - N/A   Overcast
2:35 AM 39.2 °F - 35.6 °F 87% 29.55 in 10.0 mi Calm Calm - N/A   Overcast
2:55 AM 39.2 °F - 35.6 °F 87% 29.55 in 10.0 mi Calm Calm - N/A   Overcast
3:15 AM 37.4 °F 33.8 °F 33.8 °F 87% 29.55 in 10.0 mi NNE 4.6 mph - N/A   Overcast
3:35 AM 37.4 °F 34.9 °F 33.8 °F 87% 29.55 in 10.0 mi Variable 3.5 mph - N/A   Overcast
3:55 AM 37.4 °F 33.8 °F 35.6 °F 93% 29.55 in 10.0 mi North 4.6 mph - N/A   Overcast
4:15 AM 37.4 °F 33.8 °F 35.6 °F 93% 29.55 in 10.0 mi North 4.6 mph - N/A   Overcast
4:35 AM 37.4 °F 32.8 °F 35.6 °F 93% 29.56 in 10.0 mi NNW 5.8 mph - N/A   Overcast
4:55 AM 37.4 °F 32.1 °F 35.6 °F 93% 29.55 in 10.0 mi North 6.9 mph - N/A   Overcast
5:15 AM 37.4 °F 31.4 °F 35.6 °F 93% 29.54 in 10.0 mi NNE 8.1 mph - N/A   Overcast
5:35 AM 37.4 °F 29.8 °F 33.8 °F 87% 29.50 in 10.0 mi NNE 11.5 mph - N/A   Overcast
5:55 AM 37.4 °F 31.4 °F 33.8 °F 87% 29.50 in 10.0 mi NE 8.1 mph 13.8 mph N/A   Overcast
6:15 AM 37.4 °F 30.3 °F 33.8 °F 87% 29.49 in 10.0 mi NNE 10.4 mph - N/A   Overcast
6:35 AM 35.6 °F 30.7 °F 32.0 °F 87% 29.51 in 10.0 mi ENE 5.8 mph - N/A   Overcast
6:55 AM 35.6 °F 29.9 °F 33.8 °F 93% 29.52 in 10.0 mi East 6.9 mph - N/A   Overcast
7:15 AM 35.6 °F 28.6 °F 33.8 °F 93% 29.51 in 10.0 mi East 9.2 mph - N/A   Overcast
7:35 AM 37.4 °F 32.1 °F 35.6 °F 93% 29.50 in 10.0 mi East 6.9 mph - N/A   Overcast
7:55 AM 35.6 °F 30.7 °F 33.8 °F 93% 29.51 in 10.0 mi North 5.8 mph - N/A   Overcast
8:15 AM 35.6 °F 28.6 °F 35.6 °F 100% 29.50 in 7.0 mi NNW 9.2 mph - N/A Rain Light Rain
8:35 AM 35.6 °F 27.5 °F 33.8 °F 93% 29.48 in 2.5 mi NNW 11.5 mph - N/A Rain Rain
8:55 AM 33.8 °F 24.3 °F 33.8 °F 100% 29.48 in 2.5 mi NNW 13.8 mph - 0.02 in Snow Light Snow
9:15 AM 33.8 °F 24.3 °F 33.8 °F 100% 29.45 in 1.5 mi NNW 13.8 mph - N/A Snow Light Snow
9:35 AM 33.8 °F 23.9 °F 33.8 °F 100% 29.45 in 1.0 mi NNW 15.0 mph 26.5 mph N/A Snow Light Snow
9:55 AM 33.8 °F 21.9 °F 33.8 °F 100% 29.44 in 0.8 mi NNW 21.9 mph 31.1 mph 0.02 in Snow Light Snow
10:15 AM 33.8 °F 22.5 °F 33.8 °F 100% 29.49 in 0.5 mi NW 19.6 mph 27.6 mph N/A   Overcast
10:35 AM 33.8 °F 22.5 °F 33.8 °F 100% 29.50 in 0.2 mi NNW 19.6 mph 25.3 mph N/A   Overcast
10:55 AM 32.0 °F 20.8 °F 32.0 °F 100% 29.51 in 0.2 mi NNW 17.3 mph 24.2 mph 0.05 in Snow Snow
12:15 PM 33.8 °F 21.6 °F 33.8 °F 100% 29.45 in 0.2 mi NNW 23.0 mph 33.4 mph N/A Snow Snow
12:55 PM 33.8 °F 21.9 °F 33.8 °F 100% 29.43 in 1.2 mi NNW 21.9 mph 28.8 mph 0.03 in Snow Light Snow
1:15 PM 33.8 °F 21.6 °F 33.8 °F 100% 29.43 in 1.2 mi NNW 23.0 mph 31.1 mph N/A Snow Light Snow
1:35 PM 33.8 °F 22.2 °F 33.8 °F 100% 29.43 in 2.0 mi NW 20.7 mph 33.4 mph N/A Snow Light Snow
2:15 PM 33.8 °F 22.2 °F 33.8 °F 100% 29.44 in 2.0 mi NW 20.7 mph 29.9 mph N/A Snow Light Snow
2:35 PM 33.8 °F 22.2 °F 33.8 °F 100% 29.45 in 5.0 mi NW 20.7 mph - N/A Snow Light Snow
5:15 PM 33.8 °F 22.2 °F 28.4 °F 81% 29.54 in 10.0 mi WNW 20.7 mph 27.6 mph N/A   Overcast
5:35 PM 33.8 °F 21.3 °F 26.6 °F 75% 29.55 in 10.0 mi WNW 24.2 mph 31.1 mph N/A   Overcast
5:55 PM 33.8 °F 20.1 °F 24.8 °F 70% 29.56 in 10.0 mi WNW 29.9 mph 39.1 mph N/A   Overcast
6:15 PM 32.0 °F 19.2 °F 24.8 °F 75% 29.58 in 10.0 mi WNW 23.0 mph 35.7 mph N/A   Overcast
6:35 PM 30.2 °F 16.8 °F 23.0 °F 75% 29.59 in 10.0 mi WNW 23.0 mph 35.7 mph N/A   Overcast
6:55 PM 30.2 °F 15.2 °F 23.0 °F 75% 29.60 in 10.0 mi WNW 29.9 mph 38.0 mph N/A   Overcast
7:15 PM 30.2 °F 17.8 °F 23.0 °F 75% 29.62 in 10.0 mi WNW 19.6 mph 35.7 mph N/A   Overcast
7:35 PM 28.4 °F 13.0 °F 23.0 °F 80% 29.62 in 9.0 mi WNW 28.8 mph 40.3 mph N/A Snow Light Snow
7:55 PM 28.4 °F 13.8 °F 23.0 °F 80% 29.62 in 8.0 mi WNW 25.3 mph 34.5 mph N/A Snow Light Snow
8:15 PM 26.6 °F 11.7 °F 21.2 °F 80% 29.62 in 9.0 mi WNW 24.2 mph 32.2 mph N/A Snow Light Snow
8:35 PM 26.6 °F 12.7 °F 21.2 °F 80% 29.63 in 7.0 mi WNW 20.7 mph 38.0 mph N/A Snow Light Snow
8:55 PM 24.8 °F 10.7 °F 21.2 °F 86% 29.63 in 9.0 mi WNW 19.6 mph 32.2 mph N/A   Overcast
9:15 PM 24.8 °F 8.4 °F 19.4 °F 80% 29.63 in 9.0 mi WNW 27.6 mph 46.0 mph N/A Snow Light Snow
9:35 PM 24.8 °F 10.0 °F 19.4 °F 80% 29.64 in 10.0 mi WNW 21.9 mph 31.1 mph N/A   Overcast
9:55 PM 24.8 °F 10.0 °F 17.6 °F 74% 29.64 in 10.0 mi WNW 21.9 mph 31.1 mph N/A   Overcast
10:15 PM 24.8 °F 8.4 °F 15.8 °F 69% 29.64 in 10.0 mi WNW 27.6 mph 39.1 mph N/A   Overcast
10:35 PM 23.0 °F 6.6 °F 15.8 °F 74% 29.63 in 10.0 mi WNW 25.3 mph 31.1 mph N/A   Overcast
10:55 PM 23.0 °F 6.6 °F 15.8 °F 74% 29.63 in 10.0 mi NW 25.3 mph 40.3 mph N/A   Overcast
11:15 PM 23.0 °F 8.7 °F 15.8 °F 74% 29.64 in 10.0 mi WNW 18.4 mph 26.5 mph N/A   Overcast
11:35 PM 23.0 °F 6.9 °F 15.8 °F 74% 29.63 in 10.0 mi WNW 24.2 mph 29.9 mph N/A   Overcast
11:55 PM 23.0 °F 8.7 °F 15.8 °F 74% 29.64 in 10.0 mi WNW 18.4 mph 35.7 mph N/A   Mostly Cloudy